CAPE
1 29 87 60 20 6 2 0 0 0 0 0 0 0 0 0 0 0 0 0 0 0 0 1 1 1 1 1 1 0 0 0 0 2 12 68 374 912 874 1327 1559 646 1530
1 26 50 63 29 23 7 0 0 0 0 0 0 0 0 0 0 0 0 0 2 4 5 6 5 10 10 10 7 7 6 2 0 3 6 0 0 247 884 1167 1195 655 1567
4 12 36 67 34 14 0 0 0 0 0 0 0 0 0 0 0 0 1 2 3 4 6 10 13 9 5 5 4 5 2 2 0 0 0 0 0 0 478 939 1094 890 1516
2 11 33 35 39 7 0 0 0 0 0 0 0 0 0 0 0 0 2 2 3 4 4 3 2 2 3 5 5 5 5 5 4 3 0 0 0 0 29 873 1076 682 1431
1 2 17 29 25 6 0 0 0 0 0 0 0 0 0 0 0 0 1 1 1 2 3 5 6 7 9 8 7 7 7 4 4 0 0 0 0 0 0 444 983 881 1516
0 0 15 30 33 4 0 0 0 0 0 0 0 0 0 0 0 0 1 2 2 1 6 9 11 6 5 6 11 14 14 14 11 0 0 0 0 0 0 364 737 902 1024
0 0 6 20 27 8 0 0 0 0 0 0 0 0 0 0 1 1 4 2 2 9 13 11 8 9 10 7 8 9 23 20 1 0 0 0 0 0 0 172 694 1053 888
0 0 0 0 2 15 1 0 0 0 0 0 0 0 0 0 0 1 5 5 5 11 17 5 12 7 9 9 11 9 6 0 0 0 0 0 0 0 0 22 742 986 1067
0 0 0 0 0 1 0 0 0 0 0 0 0 0 0 0 0 0 0 9 9 6 4 20 16 11 11 10 5 3 0 0 0 0 0 0 0 0 0 1 594 854 1001
0 0 0 0 0 0 0 0 0 0 0 0 0 0 0 0 0 0 0 0 2 9 8 7 7 4 4 1 2 2 0 0 0 0 0 0 74 71 0 1 530 739 809
0 0 0 0 0 0 0 0 0 0 0 0 0 0 0 0 0 0 0 0 0 0 0 0 8 0 0 0 0 0 0 0 0 0 9 78 350 196 0 433 682 559 548
0 0 0 0 0 0 0 0 0 0 0 0 0 0 0 0 0 0 0 0 0 0 0 0 0 0 0 0 0 0 0 0 0 1 7 186 392 99 149 9 96 431 606
0 0 0 0 0 0 0 0 0 0 0 0 0 0 0 0 0 0 0 0 0 0 0 0 0 0 0 0 2 4 2 0 3 1 1 79 301 19 4 0 22 60 510
0 0 0 0 0 0 0 0 0 0 0 0 0 0 0 0 0 0 0 0 0 0 0 0 0 0 0 0 1 0 2 2 0 3 6 14 273 28 2 0 0 0 610
0 0 0 0 0 0 0 0 0 0 0 0 0 0 0 0 0 0 0 0 0 0 0 0 0 0 0 0 0 1 11 22 13 4 9 0 363 52 0 0 0 4 531
0 0 0 0 0 0 0 0 0 0 0 0 0 0 0 0 0 0 0 0 0 0 0 0 0 0 0 0 0 1 6 13 1 5 3 1 1 26 21 0 0 360 952
0 0 0 0 0 0 0 0 0 0 0 0 0 0 0 0 0 0 0 0 0 0 0 0 0 0 0 0 0 3 2 5 35 25 9 0 0 0 0 222 791 929 774
0 0 0 0 0 0 0 0 0 0 0 0 0 0 0 0 0 0 0 0 0 0 0 0 0 0 0 0 2 3 4 3 19 29 15 2 8 10 0 377 493 567 885
0 0 0 0 0 0 0 0 0 0 0 0 0 0 0 0 0 0 0 0 0 0 0 0 0 0 0 0 1 4 4 4 4 2 2 2 14 30 2 2 80 159 291
0 0 0 0 0 0 0 0 0 0 0 0 0 0 0 0 0 0 0 0 0 0 0 0 0 0 0 0 0 2 3 4 4 2 2 1 2 2 4 9 148 57 113
0 0 0 0 0 0 0 0 0 0 0 0 0 0 0 0 0 0 0 0 0 0 0 0 0 0 0 0 0 0 0 1 4 2 0 0 0 3 3 3 19 132 162
1 0 0 0 0 0 0 0 0 0 0 0 0 0 0 0 0 0 0 0 0 0 0 0 0 0 0 0 0 0 0 3 1 3 2 1 1 2 1 1 1 10 17
1 0 0 0 0 0 0 0 0 0 0 0 0 0 0 0 0 0 0 0 0 0 0 0 0 0 0 0 0 0 0 1 1 2 1 1 2 2 2 0 0 0 6
0 1 0 0 0 0 0 0 0 0 0 0 0 0 0 0 0 0 0 0 0 0 0 0 0 0 0 0 0 0 0 0 0 3 0 1 0 1 1 2 0 0 0
0 1 0 0 0 0 0 0 0 0 0 0 0 0 0 0 0 0 0 0 0 0 0 0 0 0 0 0 0 0 0 0 0 0 0 1 0 0 2 2 1 0 0
0 1 0 0 0 0 0 0 0 0 0 0 0 0 0 0 0 0 0 0 0 0 0 0 0 0 0 0 0 0 0 0 0 0 0 0 0 0 0 0 0 0 0
CIN
-0 -0 -42 -1 -2 -10 -0 -0 -0 -0 -0 -0 -0 -0 -0 -0 -0 -0 -0 -0 -0 -0 -0 -0 -0 -0 -0 -0 -0 -0 -0 -0 -0 -6 -52 -138 -24 -0 -0 -1 -0 -14 -0
-0 -0 -2 -0 -4 -8 -29 -0 -0 -0 -0 -0 -0 -0 -0 -0 -0 -0 -0 -0 -0 -0 -0 -0 -0 -0 -0 -0 -0 -0 -0 -0 -0 -0 -0 -0 -0 -80 -0 -1 -1 -11 -0
-0 -0 -3 -0 -3 -22 -0 -0 -0 -0 -0 -0 -0 -0 -0 -0 -0 -0 -0 -0 -0 -0 -0 -0 -0 -0 -0 -0 -0 -0 -0 -0 -0 -0 -0 -0 -0 -0 -31 -0 -0 -5 -0
-0 -1 -1 -2 -11 -35 -0 -0 -0 -0 -0 -0 -0 -0 -0 -0 -0 -0 -0 -0 -0 -0 -0 -0 -0 -0 -0 -0 -0 -0 -0 -0 -0 -1 -0 -0 -0 -0 -56 -0 -0 -3 -0
-0 -5 -16 -11 -21 -30 -0 -0 -0 -0 -0 -0 -0 -0 -0 -0 -0 -0 -0 -0 -0 -0 -0 -0 -0 -0 -0 -0 -0 -0 -0 -0 -0 -0 -0 -0 -0 -0 -0 -16 -0 -0 -0
-0 -0 -23 -17 -14 -6 -0 -0 -0 -0 -0 -0 -0 -0 -0 -0 -0 -0 -0 -0 -0 -0 -0 -0 -0 -0 -0 -0 -0 -0 -1 -0 -0 -0 -0 -0 -0 -0 -0 -17 -0 -0 -4
-0 -0 -14 -16 -7 -0 -0 -0 -0 -0 -0 -0 -0 -0 -0 -0 -0 -0 -0 -0 -0 -0 -0 -0 -0 -0 -0 -0 -0 -0 -0 -0 -0 -0 -0 -0 -0 -0 -0 -118 -2 -1 -4
-0 -0 -0 -5 -9 -1 -0 -0 -0 -0 -0 -0 -0 -0 -0 -0 -0 -0 -0 -0 -0 -0 -0 -0 -0 -0 -0 -0 -0 -0 -0 -0 -0 -0 -0 -0 -0 -0 -0 -221 -1 -6 -4
-0 -0 -0 -0 -0 -3 -0 -0 -0 -0 -0 -0 -0 -0 -0 -0 -0 -0 -0 -0 -0 -0 -0 -0 -0 -0 -0 -0 -0 -0 -0 -0 -0 -0 -0 -0 -0 -0 -0 -256 -2 -0 -6
-0 -0 -0 -0 -0 -0 -0 -0 -0 -0 -0 -0 -0 -0 -0 -0 -0 -0 -0 -0 -0 -0 -0 -0 -0 -0 -0 -0 -0 -0 -0 -0 -0 -0 -0 -0 -66 -85 -0 -7 -11 -0 -1
-0 -0 -0 -0 -0 -0 -0 -0 -0 -0 -0 -0 -0 -0 -0 -0 -0 -0 -0 -0 -0 -0 -0 -0 -0 -0 -0 -0 -0 -0 -0 -0 -0 -0 -105 -53 -0 -1 -0 -2 -7 -5 -3
-0 -0 -0 -0 -0 -0 -0 -0 -0 -0 -0 -0 -0 -0 -0 -0 -0 -0 -0 -0 -0 -0 -0 -0 -0 -0 -0 -0 -0 -0 -0 -0 -0 -0 -17 -10 -1 -22 -4 -128 -49 -3 -3
-0 -0 -0 -0 -0 -0 -0 -0 -0 -0 -0 -0 -0 -0 -0 -0 -0 -0 -0 -0 -0 -0 -0 -0 -0 -0 -0 -0 -0 -0 -0 -0 -0 -0 -1 -39 -8 -81 -10 -0 -133 -79 -18
-0 -0 -0 -0 -0 -0 -0 -0 -0 -0 -0 -0 -0 -0 -0 -0 -0 -0 -0 -0 -0 -0 -0 -0 -0 -0 -0 -0 -0 -0 -1 -0 -0 -0 -6 -94 -11 -92 -55 -0 -0 -0 -17
-0 -0 -0 -0 -0 -0 -0 -0 -0 -0 -0 -0 -0 -0 -0 -0 -0 -0 -0 -0 -0 -0 -0 -0 -0 -0 -0 -0 -0 -26 -23 -0 -0 -7 -51 -0 -10 -47 -0 -0 -0 -9 -15
-0 -0 -0 -0 -0 -0 -0 -0 -0 -0 -0 -0 -0 -0 -0 -0 -0 -0 -0 -0 -0 -0 -0 -0 -0 -5 -2 -0 -0 -3 -5 -1 -0 -0 -0 -0 -0 -16 -102 -0 -0 -32 -0
-0 -0 -0 -0 -0 -0 -0 -0 -0 -0 -0 -0 -0 -0 -0 -0 -0 -0 -0 -0 -0 -0 -0 -0 -0 -0 -2 -0 -0 -0 -0 -0 -0 -0 -0 -0 -0 -0 -0 -26 -0 -0 -0
-0 -0 -0 -0 -0 -0 -0 -0 -0 -0 -0 -0 -0 -0 -0 -0 -0 -0 -0 -0 -0 -0 -0 -0 -0 -4 -1 -0 -0 -0 -0 -0 -0 -0 -0 -0 -48 -59 -23 -5 -1 -0 -0
-0 -0 -0 -0 -0 -0 -0 -0 -0 -0 -0 -0 -0 -0 -0 -0 -0 -0 -0 -0 -0 -0 -0 -0 -0 -0 -0 -0 -0 -0 -0 -0 -0 -0 -0 -7 -7 -47 -9 -2 -29 -9 -2
-0 -0 -0 -0 -0 -0 -0 -0 -0 -0 -0 -0 -0 -0 -0 -0 -0 -0 -0 -0 -0 -0 -0 -0 -0 -0 -0 -0 -0 -0 -0 -0 -0 -0 -0 -0 -10 -5 -8 -6 -9 -18 -4
-0 -0 -0 -0 -0 -0 -0 -0 -0 -0 -0 -0 -0 -0 -0 -0 -0 -0 -0 -0 -0 -0 -0 -0 -0 -0 -0 -0 -0 -1 -0 -0 -0 -0 -0 -0 -0 -0 -0 -0 -13 -0 -2
-0 -0 -0 -0 -0 -0 -0 -0 -0 -0 -0 -0 -0 -0 -0 -0 -0 -0 -0 -0 -0 -0 -0 -0 -0 -0 -0 -0 -0 -0 -1 -0 -0 -0 -0 -0 -0 -0 -0 -0 -0 -13 -7
-0 -0 -0 -0 -0 -0 -0 -0 -0 -0 -0 -0 -0 -0 -0 -0 -0 -0 -0 -0 -0 -0 -0 -0 -0 -0 -0 -0 -0 -0 -0 -0 -0 -0 -0 -0 -0 -0 -0 -0 -0 -0 -2
-0 -0 -0 -0 -0 -0 -0 -0 -0 -0 -0 -0 -0 -0 -0 -0 -0 -0 -0 -0 -0 -0 -0 -0 -0 -0 -0 -0 -0 -0 -0 -0 -0 -0 -0 -0 -0 -0 -0 -0 -0 -0 -0
-0 -0 -0 -0 -0 -0 -0 -0 -0 -0 -0 -0 -0 -0 -0 -0 -0 -0 -0 -0 -0 -0 -0 -0 -0 -0 -0 -0 -0 -0 -0 -0 -0 -0 -0 -0 -0 -0 -0 -0 -0 -0 -0
-0 -0 -0 -0 -0 -0 -0 -0 -0 -0 -0 -0 -0 -0 -0 -0 -0 -0 -0 -0 -0 -0 -0 -0 -0 -0 -0 -0 -0 -0 -0 -0 -0 -0 -0 -0 -0 -0 -0 -0 -0 -0 -0
Wind_Speed
7 11 15 17 14 13 12 11 10 10 9 9 9 9 8 8 8 8 8 8 8 8 8 8 8 8 9 10 11 12 13 13 14 12 12 12 10 5 6 9 8 8 9
13 13 14 16 15 13 13 11 10 9 9 8 8 8 8 8 8 8 9 9 9 9 9 8 9 9 10 10 11 10 10 10 11 11 11 11 11 10 5 8 10 8 11
15 13 13 15 15 15 13 11 10 9 8 7 7 8 7 8 8 9 9 10 10 9 9 10 10 10 9 9 9 8 7 6 5 6 7 5 7 9 9 8 11 11 12
13 11 12 15 15 15 13 11 9 8 8 7 7 7 7 8 8 9 10 10 11 11 11 10 9 9 10 10 9 8 8 8 8 5 5 6 6 9 8 5 12 12 13
12 10 11 16 14 15 12 10 9 8 7 7 7 7 8 8 9 9 9 9 9 9 9 10 10 10 10 10 9 9 8 8 8 5 6 6 5 7 9 8 9 13 12
10 9 12 15 15 12 11 10 9 8 7 7 7 7 8 8 8 8 8 8 8 8 9 10 10 11 11 11 11 10 8 9 8 4 5 6 7 10 9 10 4 13 12
10 9 8 10 15 11 10 9 9 8 7 7 8 8 8 8 8 7 7 8 10 11 11 11 11 13 12 11 11 10 10 11 7 5 5 5 5 11 12 10 10 11 15
12 8 6 12 15 10 9 9 8 7 7 7 7 7 6 8 8 8 8 9 9 10 11 11 12 12 11 11 11 11 10 10 6 5 5 4 6 8 10 11 12 10 16
9 8 7 9 12 10 8 8 8 7 7 7 7 7 6 7 7 7 8 9 10 10 11 13 14 13 12 11 10 10 9 9 5 4 5 4 6 8 7 9 10 11 14
7 7 8 8 9 7 7 9 8 8 8 8 9 8 7 7 7 8 7 9 10 10 11 12 12 13 10 11 10 9 8 6 5 5 3 3 8 7 4 8 8 7 10
5 7 7 8 9 8 7 6 7 8 9 8 7 7 6 4 4 5 8 9 10 10 9 10 12 13 11 9 10 9 7 4 5 4 3 7 8 7 2 2 0 2 1
9 7 7 8 9 8 6 6 5 5 4 4 4 4 3 4 4 4 5 9 8 9 9 11 13 11 8 6 5 6 4 5 4 3 3 8 7 6 5 8 8 9 6
11 7 8 8 9 8 6 4 3 2 3 3 4 3 3 3 3 3 3 3 4 6 4 6 7 6 8 7 7 7 6 6 4 3 4 7 7 5 8 5 7 7 4
11 11 10 9 9 7 5 4 4 3 3 2 3 3 2 2 3 3 3 3 3 3 5 5 5 7 9 10 10 8 7 5 4 3 4 9 8 4 7 4 4 4 4
12 12 12 10 9 8 7 5 4 4 3 3 3 3 2 2 3 2 3 3 3 3 4 5 6 7 8 7 7 6 5 5 8 4 3 11 12 7 4 0 1 1 4
12 12 11 11 10 9 7 7 5 4 5 3 3 3 4 2 2 3 3 3 3 4 4 4 5 5 5 5 6 7 8 6 9 11 6 6 12 12 10 1 1 2 12
11 11 13 12 10 10 9 7 6 5 5 4 3 4 4 3 3 3 3 3 3 3 4 4 5 7 6 5 6 8 8 8 10 12 9 6 5 8 11 8 6 12 15
12 14 13 11 11 10 8 7 6 5 5 4 4 3 4 4 3 3 3 3 3 3 3 4 4 6 5 5 6 7 8 7 14 13 10 7 6 6 7 9 14 17 26
14 14 14 13 13 11 8 6 6 6 5 4 4 3 5 4 3 3 2 3 2 3 4 3 5 3 4 5 6 8 8 8 11 10 13 12 11 9 6 12 9 11 16
15 15 15 12 13 12 7 5 4 4 3 4 4 4 5 3 3 3 3 3 2 3 4 3 5 3 2 3 4 7 9 9 10 11 12 10 11 10 9 10 7 7 15
14 16 16 15 14 11 6 5 4 4 4 3 3 4 4 4 3 3 3 3 2 4 3 3 2 3 3 2 1 4 6 11 12 10 9 9 12 11 13 9 5 5 8
18 18 17 17 16 13 9 4 3 4 2 2 3 4 4 4 4 3 4 3 2 2 4 4 3 2 2 2 1 1 3 6 8 10 9 9 11 9 11 12 9 8 11
19 20 18 17 17 14 12 8 5 5 4 3 2 2 3 4 4 3 4 3 2 2 3 3 2 3 2 4 3 2 2 3 1 6 11 10 11 9 10 12 12 12 13
17 17 17 17 17 14 16 12 11 6 5 4 4 3 4 4 4 3 4 4 3 1 3 3 2 2 1 2 2 5 5 4 3 3 6 9 11 11 10 9 11 13 14
16 18 17 17 17 17 17 15 11 8 4 4 4 7 4 4 4 4 4 4 3 1 2 4 4 3 1 2 2 2 6 5 4 3 5 6 11 8 9 10 10 10 11
13 15 16 18 17 16 16 15 15 13 9 7 6 6 5 4 4 4 4 4 3 2 2 2 5 4 3 3 3 3 2 3 4 5 6 7 7 6 10 10 10 9 8
Wind_Direction
169 160 149 139 141 137 125 116 105 95 88 79 74 69 65 61 53 46 38 33 28 25 24 19 15 13 8 2 359 356 354 353 353 5 1 348 346 320 208 190 176 181 191
149 156 151 140 147 136 125 117 107 97 88 84 76 67 59 51 45 41 37 31 26 22 19 14 10 9 6 1 360 357 353 353 350 351 353 345 346 336 277 205 183 184 176
148 156 150 143 144 134 123 119 111 103 97 88 78 68 57 49 41 39 37 30 25 21 18 15 12 7 359 356 353 346 344 338 333 329 354 336 331 332 327 224 198 190 174
146 148 148 139 141 128 125 124 117 112 105 95 82 70 58 48 43 39 39 35 28 23 18 12 4 354 350 349 343 339 331 329 325 1 335 319 312 311 319 303 216 195 182
141 145 139 138 136 121 129 130 125 121 111 101 84 68 58 53 49 47 45 40 32 25 18 8 1 357 354 350 343 338 329 328 329 336 325 314 298 293 295 301 226 209 193
136 140 147 148 126 125 136 135 130 123 115 99 81 70 63 65 57 55 51 47 41 24 11 9 4 355 343 346 345 341 341 343 324 336 317 309 306 301 274 281 288 227 212
140 143 148 128 116 141 143 140 134 127 111 94 82 75 72 66 62 62 53 41 31 22 26 14 8 8 2 358 347 341 351 352 341 321 329 326 311 304 291 253 257 226 208
143 143 142 122 123 143 147 142 134 122 105 95 90 81 73 69 60 49 37 37 32 25 21 11 3 0 352 354 355 357 355 349 349 336 306 305 305 307 285 270 259 238 203
134 137 133 129 128 135 131 123 126 119 103 93 89 84 77 71 58 51 32 29 32 29 22 16 15 2 355 356 349 352 348 349 330 325 326 318 312 304 280 269 258 259 211
138 137 138 129 120 125 123 120 115 110 101 97 93 89 77 60 54 44 32 33 33 26 22 15 16 9 4 3 359 357 353 340 342 329 319 317 321 307 269 254 246 266 233
145 148 144 138 128 134 129 129 118 104 91 88 88 90 77 64 49 40 31 34 36 29 22 17 14 8 2 2 3 0 354 347 343 331 329 331 333 321 191 39 153 54 281
172 168 165 151 139 144 140 131 119 98 88 90 94 95 89 74 47 47 32 32 30 23 14 12 10 359 3 3 352 355 5 353 347 349 358 345 353 355 109 63 69 74 66
176 168 176 163 152 154 147 140 131 123 112 97 105 109 97 86 56 42 34 25 16 14 13 9 3 11 18 18 8 9 3 3 342 352 357 353 12 43 77 65 59 45 20
174 178 173 170 161 161 148 156 156 152 129 121 117 115 102 93 78 55 43 25 19 5 2 15 6 18 28 20 1 356 12 4 0 359 23 10 14 53 69 60 53 16 27
184 179 179 171 170 164 162 161 164 159 137 136 137 128 122 107 92 92 54 33 20 1 7 17 22 35 32 7 344 342 349 28 37 40 37 33 27 65 57 170 192 350 82
189 184 174 180 174 164 169 172 171 159 144 144 147 145 128 114 96 99 72 42 30 13 14 19 25 41 33 2 350 359 360 24 50 45 39 45 32 24 10 318 220 171 122
193 176 179 177 171 172 177 171 168 166 153 150 154 158 137 131 103 104 82 62 25 20 30 34 34 52 39 10 3 11 9 14 47 51 45 54 43 25 357 353 119 112 129
181 181 174 176 176 176 173 170 169 164 155 157 156 161 147 136 124 103 83 58 10 37 41 48 48 58 41 18 20 25 22 23 46 38 40 37 45 33 12 103 91 98 115
185 178 177 176 176 175 169 164 162 159 161 155 156 171 151 135 134 114 90 58 32 56 49 58 61 59 49 26 34 38 34 26 51 35 25 20 23 39 58 56 55 100 133
184 180 179 175 173 171 156 140 136 147 151 152 167 176 150 133 143 128 102 63 52 72 58 71 81 62 73 70 57 60 43 41 43 47 26 18 18 30 50 58 65 84 107
184 179 177 171 173 159 155 158 153 164 160 168 171 163 155 137 146 134 110 82 49 65 55 57 103 84 36 355 152 63 66 40 44 48 39 27 24 32 36 40 51 88 115
189 185 178 180 168 172 168 147 141 142 157 141 155 162 163 151 152 155 123 102 68 79 55 57 79 131 86 2 120 107 49 43 30 33 43 40 35 38 35 31 25 88 92
191 189 181 177 172 171 160 127 103 97 94 118 152 157 179 167 154 165 125 115 95 89 55 58 46 104 139 55 43 124 126 84 358 9 33 40 44 44 41 38 44 64 76
192 186 180 174 169 165 157 156 163 165 150 176 157 160 164 167 149 169 139 128 115 124 83 55 25 65 176 139 91 53 66 113 111 92 36 45 48 44 43 48 58 66 78
179 181 176 170 168 163 167 171 166 158 135 137 140 151 155 164 154 166 148 144 134 128 82 83 60 57 65 103 106 120 73 67 58 98 95 83 62 43 43 39 48 46 45
175 175 170 169 171 164 167 167 171 161 149 147 148 158 164 165 157 169 158 153 145 140 109 69 84 64 73 81 105 113 121 137 129 125 107 86 79 40 44 36 36 32 37